Terminal Aerodrome Forecast
Issued by NWS Sterling, VA

Home | Current Version | Previous Version | Text Only | Print | Product List | Glossary On
Versions: 1 2 3 4 5 6 7 8 9 10 11 12 13 14 15 16 17 18 19 20 21 22 23 24 25 26 27 28
000
FTUS41 KLWX 271733
TAFIAD
TAF
KIAD 271733Z 2718/2824 35006KT P6SM OVC050
     FM280800 33010KT P6SM BKN090
     FM281500 32014KT P6SM BKN060
     FM282000 31013KT P6SM SCT050=

USA.gov is the U.S. government's official web portal to all federal, state and local government web resources and services.